TimeMST,TemperatureF,Dew PointF,Humidity,Sea Level PressureIn,VisibilityMPH,Wind Direction,Wind SpeedMPH,Gust SpeedMPH,PrecipitationIn,Events,Conditions,WindDirDegrees,DateUTC
12:51 AM,30.0,23.0,75,30.04,10.0,WSW,9.2,-,N/A,,Clear,240,2013-02-07 07:51:00
1:51 AM,30.0,21.9,72,30.06,10.0,West,9.2,-,N/A,,Clear,280,2013-02-07 08:51:00
2:51 AM,28.9,21.0,72,30.07,10.0,West,11.5,-,N/A,,Clear,260,2013-02-07 09:51:00
3:51 AM,28.9,21.0,72,30.07,10.0,West,10.4,-,N/A,,Clear,260,2013-02-07 10:51:00
4:51 AM,27.0,19.9,75,30.09,10.0,WSW,12.7,-,N/A,,Clear,250,2013-02-07 11:51:00
5:51 AM,28.0,19.9,72,30.10,10.0,WSW,12.7,-,N/A,,Clear,240,2013-02-07 12:51:00
6:51 AM,25.0,18.0,75,30.12,10.0,West,6.9,-,N/A,,Clear,270,2013-02-07 13:51:00
7:51 AM,27.0,19.0,72,30.14,10.0,West,10.4,-,N/A,,Clear,270,2013-02-07 14:51:00
8:51 AM,32.0,21.9,66,30.14,10.0,West,9.2,-,N/A,,Clear,260,2013-02-07 15:51:00
9:51 AM,37.0,23.0,57,30.14,10.0,West,8.1,-,N/A,,Clear,270,2013-02-07 16:51:00
10:51 AM,39.9,21.9,49,30.13,10.0,West,6.9,-,N/A,,Clear,270,2013-02-07 17:51:00
11:51 AM,41.0,21.0,45,30.12,10.0,West,6.9,-,N/A,,Clear,260,2013-02-07 18:51:00
12:51 PM,42.1,21.0,43,30.09,10.0,SW,5.8,-,N/A,,Clear,220,2013-02-07 19:51:00
1:51 PM,44.1,21.0,40,30.07,10.0,WSW,4.6,-,N/A,,Clear,250,2013-02-07 20:51:00
2:51 PM,44.1,19.9,38,30.06,10.0,SW,3.5,-,N/A,,Clear,220,2013-02-07 21:51:00
3:51 PM,43.0,19.0,38,30.05,10.0,Calm,Calm,-,N/A,,Clear,0,2013-02-07 22:51:00
4:51 PM,34.0,23.0,64,30.06,10.0,SSE,4.6,-,N/A,,Clear,150,2013-02-07 23:51:00
5:51 PM,34.0,24.1,67,30.07,10.0,SSE,6.9,-,N/A,,Clear,160,2013-02-08 00:51:00
6:51 PM,32.0,24.1,73,30.06,10.0,SE,4.6,-,N/A,,Partly Cloudy,130,2013-02-08 01:51:00
7:51 PM,32.0,24.1,73,30.05,10.0,SE,9.2,-,N/A,,Partly Cloudy,130,2013-02-08 02:51:00
8:51 PM,32.0,23.0,69,30.03,10.0,SE,9.2,-,N/A,,Clear,130,2013-02-08 03:51:00
9:51 PM,32.0,23.0,69,30.00,10.0,SE,12.7,-,N/A,,Clear,140,2013-02-08 04:51:00
10:51 PM,33.1,23.0,66,29.98,10.0,SE,16.1,-,N/A,,Mostly Cloudy,140,2013-02-08 05:51:00
11:51 PM,32.0,24.1,73,29.97,10.0,SE,15.0,-,N/A,,Clear,140,2013-02-08 06:51:00